Weather History for West Plains, MO

Change the Weather History Date:

Thursday, April 25, 2013

  Actual Average Record
Temperature  
Mean Temperature 50 °F 60 °F  
Max Temperature 69 °F 72 °F 88 °F (2012)
Min Temperature 31 °F 48 °F 31 °F (1968)
Degree Days  
Heating Degree Days 15 6  
Month to date heating degree days 277 226  
Since 1 July heating degree days 4323 4236  
Cooling Degree Days 0 1  
Month to date cooling degree days 15 20  
Year to date cooling degree days 15 24  
Moisture  
Dew Point 30 °F    
Average Humidity 51    
Maximum Humidity 82    
Minimum Humidity 20    
Precipitation  
Precipitation T in 0.17 in 3.49 in (2011)
Month to date precipitation 3.62 3.67  
Year to date precipitation 14.69 13.52  
Sea Level Pressure  
Sea Level Pressure 30.31 in    
Wind  
Wind Speed 5 mph (SW)    
Max Wind Speed 13 mph    
Max Gust Speed 22 mph    
Visibility 10 miles    
Events      
T = Trace of Precipitation, MM = Missing Value Source: NWS Daily Summary

Daily Weather History Graph

Daily Weather History Graph

Search for Another Location

Airport:

Trip Planner

Search our weather history database for the weather conditions in past years. The results will help you decide how hot, cold, wet, or windy it might be!

Date:

Astronomy

Apr. 25, 2013 Rise Set
Actual Time 6:20 AM CDT 7:51 PM CDT
Civil Twilight 5:52 AM CDT 8:18 PM CDT
Nautical Twilight 5:19 AM CDT 8:51 PM CDT
Astronomical Twilight 4:45 AM CDT 9:26 PM CDT
Moon 8:04 PM CDT (4/25) 6:03 AM CDT (4/25)
Length of Visible Light 14h 25m
Length of Day
13h 31m
Full, 100% of the Moon is Illuminated
Apr 25
Full
Apr 25
Full
May 2
Last Quarter
May 9
New
May 17
First Quarter

Hourly Weather History & Observations

Time (CDT) Temp. Windchill Dew Point Humidity Pressure Visibility Wind Dir Wind Speed Gust Speed Precip Events Conditions
12:53 AM 37.9 °F 34.4 °F 28.9 °F 70% 30.31 in 10.0 mi West 4.6 mph - N/A   Clear
1:53 AM 39.0 °F 35.7 °F 28.0 °F 65% 30.31 in 10.0 mi WNW 4.6 mph - N/A   Clear
2:53 AM 37.0 °F - 27.0 °F 67% 30.31 in 10.0 mi Calm Calm - N/A   Clear
3:53 AM 34.0 °F 31.0 °F 27.0 °F 75% 30.30 in 10.0 mi WSW 3.5 mph - N/A   Clear
4:53 AM 33.1 °F - 28.0 °F 82% 30.30 in 10.0 mi Calm Calm - N/A   Clear
5:53 AM 33.1 °F 28.7 °F 27.0 °F 78% 30.32 in 10.0 mi WSW 4.6 mph - N/A   Clear
6:53 AM 34.0 °F 31.0 °F 28.0 °F 79% 30.33 in 10.0 mi WSW 3.5 mph - N/A   Clear
7:53 AM 41.0 °F 36.4 °F 30.0 °F 65% 30.36 in 10.0 mi West 6.9 mph - N/A   Clear
8:53 AM 50.0 °F - 30.9 °F 48% 30.37 in 10.0 mi West 9.2 mph - N/A   Clear
9:53 AM 55.0 °F - 30.0 °F 38% 30.37 in 10.0 mi West 8.1 mph - N/A   Clear
10:53 AM 57.9 °F - 30.0 °F 35% 30.37 in 10.0 mi WSW 6.9 mph - N/A   Clear
11:53 AM 61.0 °F - 28.9 °F 30% 30.35 in 10.0 mi West 5.8 mph - N/A   Clear
12:53 PM 63.0 °F - 30.0 °F 29% 30.35 in 10.0 mi Variable 4.6 mph - N/A   Clear
1:53 PM 64.9 °F - 30.9 °F 28% 30.33 in 10.0 mi Variable 5.8 mph - N/A   Clear
2:53 PM 66.9 °F - 28.0 °F 23% 30.31 in 10.0 mi Variable 5.8 mph - N/A   Clear
3:53 PM 66.9 °F - 26.1 °F 21% 30.29 in 10.0 mi Calm Calm - N/A   Clear
4:53 PM 66.9 °F - 25.0 °F 21% 30.28 in 10.0 mi SSW 6.9 mph - N/A   Clear
5:53 PM 66.9 °F - 25.0 °F 21% 30.27 in 10.0 mi SE 3.5 mph - N/A   Clear
6:53 PM 66.0 °F - 28.9 °F 25% 30.27 in 10.0 mi SSW 5.8 mph - N/A   Clear
7:53 PM 60.1 °F - 35.1 °F 39% 30.27 in 10.0 mi Calm Calm - N/A   Clear
8:53 PM 55.9 °F - 33.1 °F 42% 30.27 in 10.0 mi South 3.5 mph - N/A   Clear
9:53 PM 57.0 °F - 33.1 °F 40% 30.28 in 10.0 mi South 3.5 mph - N/A   Clear
10:53 PM 57.0 °F - 36.0 °F 45% 30.28 in 10.0 mi South 6.9 mph - N/A   Clear
11:53 PM 57.0 °F - 37.0 °F 47% 30.28 in 10.0 mi SSW 9.2 mph - N/A   Clear